ETD2 KJFK-OMAA

Flight info

Callsign ETD2
Flight time N/A
Altitude 35000
Route HAPIE DCT YAHOO DCT WHALE DCT NANSO/M085F350 N59E RAFIN NATV ELSOX/M085F370 DCT TAKAS/N0491F370 DCT ALUTA DCT TERKU DCT KORER DCT LEMKA/N0489F390 DCT BEBIX/N0487F380 DCT VALKU/N0487F390 DCT TIS DCT MEBAK DCT GIPNO DCT BALSI DCT OBIGO DCT ROBEX DCT LAPRI/N0485F380 DCT MOGBO/N0482F390 DCT ROSKI DCT POLIT DCT BELIX DCT SALUN N705 MMA P751 DASUM Y234 FYM/N0484F410 M872 BDB Y214 RAPMA DCT KUVSO DCT KATIT DCT DANUX DCT TANSU/N0511F330 G783 VAVIM P899 ROVOS
Aircraft A359/H-SDE2E3GHIJ3J4J5LM1ORWXY/LB1D1

Departure

Time 2026-05-05 00:01
Airport John F. Kennedy International Airport (KJFK)

Arrival

Time N/A
Airport Zayed International Airport (OMAA)
Time Latitude Longitude Altitude Speed Heading
2026-05-04 23:06 40.63845 -73.78040 29 ft 0 kts 263°
2026-05-04 23:46 40.63846 -73.78024 28 ft 4 kts 263°
2026-05-04 23:46 40.63850 -73.77989 27 ft 4 kts 263°
2026-05-04 23:46 40.63852 -73.77961 26 ft 4 kts 263°
2026-05-04 23:46 40.63854 -73.77932 26 ft 4 kts 232°
2026-05-04 23:47 40.63867 -73.77929 25 ft 3 kts 173°
2026-05-04 23:47 40.63893 -73.77934 28 ft 4 kts 173°
2026-05-04 23:47 40.63899 -73.77935 28 ft 0 kts 173°
2026-05-04 23:51 40.63885 -73.77933 28 ft 4 kts 173°
2026-05-04 23:51 40.63851 -73.77928 26 ft 6 kts 173°
2026-05-04 23:51 40.63809 -73.77921 29 ft 6 kts 173°
2026-05-04 23:51 40.63761 -73.77914 29 ft 7 kts 173°
2026-05-04 23:52 40.63708 -73.77906 29 ft 8 kts 173°
2026-05-04 23:52 40.63649 -73.77897 29 ft 9 kts 173°
2026-05-04 23:52 40.63590 -73.77873 29 ft 9 kts 149°
2026-05-04 23:52 40.63560 -73.77831 28 ft 0 kts 119°
2026-05-04 23:53 40.63545 -73.77803 28 ft 5 kts 126°
2026-05-04 23:53 40.63536 -73.77780 27 ft 1 kts 110°
2026-05-04 23:53 40.63534 -73.77775 27 ft 0 kts 112°
2026-05-04 23:54 40.63527 -73.77741 27 ft 7 kts 98°
2026-05-04 23:54 40.63545 -73.77687 27 ft 7 kts 49°
2026-05-04 23:54 40.63591 -73.77643 26 ft 9 kts 34°
2026-05-04 23:54 40.63644 -73.77600 26 ft 9 kts 31°
2026-05-04 23:55 40.63705 -73.77552 26 ft 11 kts 31°
2026-05-04 23:55 40.63779 -73.77494 29 ft 13 kts 31°
2026-05-04 23:55 40.63921 -73.77383 27 ft 11 kts 31°
2026-05-04 23:56 40.63988 -73.77331 27 ft 11 kts 31°
2026-05-04 23:56 40.64054 -73.77279 29 ft 10 kts 31°
2026-05-04 23:56 40.64111 -73.77235 31 ft 9 kts 31°
2026-05-04 23:56 40.64166 -73.77192 31 ft 10 kts 31°
2026-05-04 23:57 40.64231 -73.77141 29 ft 12 kts 31°
2026-05-04 23:57 40.64308 -73.77081 29 ft 13 kts 31°
2026-05-04 23:57 40.64390 -73.77019 28 ft 14 kts 25°
2026-05-04 23:57 40.64493 -73.76985 29 ft 15 kts 13°
2026-05-04 23:58 40.64590 -73.76923 29 ft 15 kts 30°
2026-05-04 23:58 40.64687 -73.76848 28 ft 16 kts 31°
2026-05-04 23:58 40.64782 -73.76773 31 ft 15 kts 31°
2026-05-04 23:58 40.64866 -73.76708 28 ft 13 kts 29°
2026-05-04 23:59 40.64949 -73.76644 27 ft 14 kts 31°
2026-05-04 23:59 40.65035 -73.76576 27 ft 13 kts 31°
2026-05-04 23:59 40.65100 -73.76503 28 ft 10 kts 69°
2026-05-04 23:59 40.65083 -73.76435 29 ft 7 kts 116°
2026-05-05 00:00 40.65058 -73.76378 29 ft 7 kts 127°
2026-05-05 00:00 40.65031 -73.76362 29 ft 6 kts 175°
2026-05-05 00:00 40.64974 -73.76394 29 ft 11 kts 209°
2026-05-05 00:00 40.64746 -73.76573 28 ft 67 kts 211°
2026-05-05 00:01 40.64185 -73.77011 27 ft 118 kts 211°
2026-05-05 00:01 40.63341 -73.77671 34 ft 162 kts 211°
2026-05-05 00:01 40.62305 -73.78459 415 ft 168 kts 209°
2026-05-05 00:01 40.61362 -73.79183 1225 ft 148 kts 212°
2026-05-05 00:02 40.60525 -73.79888 1712 ft 139 kts 214°
2026-05-05 00:02 40.59721 -73.80549 2003 ft 133 kts 211°
2026-05-05 00:02 40.58912 -73.81096 2226 ft 130 kts 205°
2026-05-05 00:02 40.58045 -73.81438 2376 ft 132 kts 187°
2026-05-05 00:03 40.57167 -73.81243 2517 ft 130 kts 154°
2026-05-05 00:03 40.56524 -73.80400 2572 ft 137 kts 118°
2026-05-05 00:03 40.56150 -73.79153 2555 ft 158 kts 108°
2026-05-05 00:03 40.55806 -73.77688 2621 ft 176 kts 108°
2026-05-05 00:04 40.55407 -73.76102 2793 ft 190 kts 109°
2026-05-05 00:04 40.54972 -73.74392 2999 ft 204 kts 108°
2026-05-05 00:04 40.54525 -73.72543 3198 ft 220 kts 107°
2026-05-05 00:04 40.54069 -73.70537 3399 ft 237 kts 106°
2026-05-05 00:05 40.53602 -73.68383 3654 ft 252 kts 105°
2026-05-05 00:05 40.53125 -73.66120 4036 ft 261 kts 105°
2026-05-05 00:05 40.52648 -73.63829 4532 ft 265 kts 105°
2026-05-05 00:05 40.52158 -73.61476 4952 ft 269 kts 105°
2026-05-05 00:06 40.51662 -73.59100 5273 ft 271 kts 105°
2026-05-05 00:06 40.51157 -73.56694 5820 ft 273 kts 105°
2026-05-05 00:06 40.50650 -73.54290 6390 ft 274 kts 105°
2026-05-05 00:06 40.50138 -73.51866 6939 ft 276 kts 105°
2026-05-05 00:07 40.49621 -73.49423 7463 ft 278 kts 105°
2026-05-05 00:07 40.49100 -73.46970 8008 ft 280 kts 105°
2026-05-05 00:07 40.48574 -73.44493 8537 ft 283 kts 105°
2026-05-05 00:07 40.48043 -73.41994 9072 ft 285 kts 105°
2026-05-05 00:08 40.47508 -73.39480 9597 ft 287 kts 105°
2026-05-05 00:08 40.46968 -73.36943 10139 ft 289 kts 105°
2026-05-05 00:08 40.46416 -73.34356 10461 ft 301 kts 105°
2026-05-05 00:08 40.45839 -73.31654 10696 ft 313 kts 105°
2026-05-05 00:09 40.45238 -73.28841 10928 ft 326 kts 105°
2026-05-05 00:09 40.44613 -73.25921 11181 ft 338 kts 105°
2026-05-05 00:09 40.43973 -73.22934 11426 ft 349 kts 105°
2026-05-05 00:09 40.43305 -73.19825 11656 ft 360 kts 106°
2026-05-05 00:10 40.42616 -73.16620 11873 ft 370 kts 106°
2026-05-05 00:10 40.41906 -73.13322 12080 ft 380 kts 106°
2026-05-05 00:10 40.41179 -73.09949 12335 ft 387 kts 106°
2026-05-05 00:10 40.40440 -73.06526 12711 ft 391 kts 106°
2026-05-05 00:11 40.39742 -73.03068 13103 ft 394 kts 102°
2026-05-05 00:11 40.39361 -72.99507 13491 ft 396 kts 93°
2026-05-05 00:11 40.39439 -72.95876 13887 ft 399 kts 83°
2026-05-05 00:11 40.39900 -72.92291 14289 ft 401 kts 77°
2026-05-05 00:12 40.40597 -72.88736 14663 ft 403 kts 74°
2026-05-05 00:12 40.41412 -72.85209 15055 ft 405 kts 72°
2026-05-05 00:12 40.42261 -72.81721 15423 ft 407 kts 72°
2026-05-05 00:12 40.43124 -72.78169 15791 ft 409 kts 72°
2026-05-05 00:13 40.43986 -72.74547 16163 ft 412 kts 73°
2026-05-05 00:13 40.44812 -72.70987 16526 ft 414 kts 73°
2026-05-05 00:13 40.45638 -72.67358 16887 ft 416 kts 73°
2026-05-05 00:13 40.46458 -72.63706 17222 ft 418 kts 73°
2026-05-05 00:14 40.47277 -72.60036 17573 ft 420 kts 73°
2026-05-05 00:14 40.48100 -72.56337 17907 ft 422 kts 73°
2026-05-05 00:14 40.48925 -72.52620 18239 ft 424 kts 73°
2026-05-05 00:14 40.49753 -72.48887 18565 ft 426 kts 73°
2026-05-05 00:15 40.50587 -72.45128 18880 ft 428 kts 73°
2026-05-05 00:15 40.51423 -72.41355 19201 ft 430 kts 73°
2026-05-05 00:15 40.52260 -72.37572 19522 ft 432 kts 73°
2026-05-05 00:15 40.53099 -72.33772 19818 ft 434 kts 73°
2026-05-05 00:16 40.53943 -72.29945 20106 ft 436 kts 73°
2026-05-05 00:16 40.54787 -72.26110 20417 ft 438 kts 73°
2026-05-05 00:16 40.55626 -72.22291 20718 ft 440 kts 74°
2026-05-05 00:16 40.56474 -72.18424 21013 ft 442 kts 74°
2026-05-05 00:17 40.57329 -72.14523 21311 ft 444 kts 74°
2026-05-05 00:17 40.58183 -72.10613 21597 ft 446 kts 74°
2026-05-05 00:17 40.59040 -72.06686 21883 ft 448 kts 74°
2026-05-05 00:17 40.59899 -72.02740 22164 ft 449 kts 74°
2026-05-05 00:18 40.60761 -71.98775 22442 ft 451 kts 74°
2026-05-05 00:18 40.61625 -71.94790 22722 ft 453 kts 74°
2026-05-05 00:18 40.62491 -71.90791 22994 ft 455 kts 74°
2026-05-05 00:18 40.63359 -71.86778 23255 ft 457 kts 74°
2026-05-05 00:19 40.64230 -71.82741 23517 ft 459 kts 74°
2026-05-05 00:19 40.65100 -71.78701 23787 ft 460 kts 74°
2026-05-05 00:19 40.65976 -71.74621 24047 ft 462 kts 74°
2026-05-05 00:19 40.66852 -71.70540 24294 ft 464 kts 74°
2026-05-05 00:20 40.67717 -71.66501 24545 ft 466 kts 74°
2026-05-05 00:20 40.68597 -71.62382 24795 ft 467 kts 74°
2026-05-05 00:20 40.69479 -71.58246 25038 ft 469 kts 74°
2026-05-05 00:20 40.70362 -71.54099 25285 ft 471 kts 74°
2026-05-05 00:21 40.71249 -71.49926 25520 ft 472 kts 74°
2026-05-05 00:21 40.72135 -71.45748 25760 ft 474 kts 74°
2026-05-05 00:21 40.73021 -71.41561 26001 ft 476 kts 74°
2026-05-05 00:21 40.73912 -71.37341 26240 ft 477 kts 74°
2026-05-05 00:22 40.74802 -71.33121 26480 ft 479 kts 74°
2026-05-05 00:22 40.75684 -71.28926 26712 ft 481 kts 74°
2026-05-05 00:22 40.76576 -71.24676 26943 ft 482 kts 74°
2026-05-05 00:22 40.77484 -71.20346 27177 ft 484 kts 74°
2026-05-05 00:23 40.78370 -71.16108 27403 ft 486 kts 75°
2026-05-05 00:23 40.79267 -71.11810 27619 ft 487 kts 75°
2026-05-05 00:23 40.80168 -71.07483 27836 ft 489 kts 75°
2026-05-05 00:23 40.81069 -71.03147 28049 ft 490 kts 75°
2026-05-05 00:24 40.81971 -70.98800 28255 ft 492 kts 75°
2026-05-05 00:24 40.82874 -70.94432 28458 ft 493 kts 75°
2026-05-05 00:24 40.83778 -70.90056 28653 ft 495 kts 75°
2026-05-05 00:24 40.84683 -70.85666 28832 ft 496 kts 75°
2026-05-05 00:25 40.85589 -70.81258 29019 ft 498 kts 75°
2026-05-05 00:25 40.86496 -70.76842 29192 ft 499 kts 75°
2026-05-05 00:25 40.87403 -70.72410 29460 ft 498 kts 75°
2026-05-05 00:25 40.88306 -70.67991 29728 ft 497 kts 75°
2026-05-05 00:26 40.89206 -70.63579 29983 ft 497 kts 75°
2026-05-05 00:26 40.90101 -70.59180 30228 ft 496 kts 75°
2026-05-05 00:26 40.90995 -70.54773 30479 ft 496 kts 75°
2026-05-05 00:26 40.91877 -70.50419 30718 ft 495 kts 75°
2026-05-05 00:27 40.92767 -70.46018 30960 ft 495 kts 75°
2026-05-05 00:27 40.93653 -70.41626 31198 ft 494 kts 75°
2026-05-05 00:27 40.94536 -70.37237 31436 ft 494 kts 75°
2026-05-05 00:27 40.95417 -70.32851 31643 ft 493 kts 75°
2026-05-05 00:28 40.96297 -70.28460 31878 ft 493 kts 75°
2026-05-05 00:28 40.97173 -70.24083 32093 ft 492 kts 75°
2026-05-05 00:28 40.98046 -70.19708 32301 ft 492 kts 75°
2026-05-05 00:28 40.98919 -70.15323 32506 ft 491 kts 75°
2026-05-05 00:29 40.99787 -70.10956 32696 ft 491 kts 75°
2026-05-05 00:29 41.00654 -70.06581 32910 ft 491 kts 75°
2026-05-05 00:29 41.01518 -70.02214 33091 ft 490 kts 75°
2026-05-05 00:29 41.02382 -69.97835 33283 ft 490 kts 75°
2026-05-05 00:30 41.03241 -69.93475 33470 ft 489 kts 75°
2026-05-05 00:30 41.04098 -69.89114 33644 ft 489 kts 75°
2026-05-05 00:30 41.04953 -69.84758 33830 ft 489 kts 75°
2026-05-05 00:30 41.05805 -69.80401 34003 ft 488 kts 75°
2026-05-05 00:31 41.06790 -69.76095 34158 ft 488 kts 69°
2026-05-05 00:31 41.08148 -69.72038 34317 ft 488 kts 63°
2026-05-05 00:31 41.09729 -69.68065 34480 ft 487 kts 61°
2026-05-05 00:31 41.11372 -69.64136 34641 ft 487 kts 60°
2026-05-05 00:32 41.13047 -69.60230 34791 ft 486 kts 60°
2026-05-05 00:32 41.14731 -69.56337 34954 ft 486 kts 60°
2026-05-05 00:32 41.16420 -69.52432 35008 ft 489 kts 60°
2026-05-05 00:33 41.19808 -69.44545 35003 ft 493 kts 59°
2026-05-05 00:33 41.22679 -69.38007 35001 ft 492 kts 58°
2026-05-05 00:34 41.26135 -69.30152 34999 ft 492 kts 58°
2026-05-05 00:34 41.29532 -69.22236 35003 ft 492 kts 59°
2026-05-05 00:35 41.32886 -69.14297 35002 ft 492 kts 59°
2026-05-05 00:35 41.36230 -69.06342 34999 ft 492 kts 59°
2026-05-05 00:36 41.39570 -68.98381 34987 ft 492 kts 59°
2026-05-05 00:36 41.42909 -68.90407 35003 ft 492 kts 59°
2026-05-05 00:37 41.46242 -68.82428 35000 ft 492 kts 59°
2026-05-05 00:37 41.49552 -68.74482 35004 ft 492 kts 59°
2026-05-05 00:38 41.52875 -68.66485 34999 ft 492 kts 59°
2026-05-05 00:38 41.56190 -68.58485 35003 ft 492 kts 59°
2026-05-05 00:39 41.59504 -68.50469 34991 ft 492 kts 52°
2026-05-05 00:39 41.62991 -68.42649 35002 ft 492 kts 60°
2026-05-05 00:40 41.66142 -68.34566 35003 ft 493 kts 62°
2026-05-05 00:40 41.69314 -68.26437 35004 ft 492 kts 60°
2026-05-05 00:41 41.72559 -68.18372 35000 ft 492 kts 60°
2026-05-05 00:41 41.75839 -68.10328 34997 ft 492 kts 60°
2026-05-05 00:42 41.79121 -68.02275 34998 ft 492 kts 60°
2026-05-05 00:42 41.82395 -67.94211 34991 ft 492 kts 60°
2026-05-05 00:43 41.85660 -67.86137 34998 ft 492 kts 60°
2026-05-05 00:43 41.88921 -67.78046 35003 ft 492 kts 60°
2026-05-05 00:44 41.92173 -67.69959 34987 ft 492 kts 60°
2026-05-05 00:44 41.95403 -67.61905 35003 ft 492 kts 60°
2026-05-05 00:45 41.98645 -67.53798 34999 ft 492 kts 60°
2026-05-05 00:45 42.01880 -67.45686 35001 ft 492 kts 60°
2026-05-05 00:46 42.05112 -67.37561 35003 ft 492 kts 60°
2026-05-05 00:46 42.08337 -67.29428 34999 ft 492 kts 61°
2026-05-05 00:47 42.11557 -67.21286 34998 ft 492 kts 61°
2026-05-05 00:47 42.14769 -67.13143 35001 ft 492 kts 61°
2026-05-05 00:48 42.17953 -67.05044 34997 ft 492 kts 61°
2026-05-05 00:48 42.20783 -66.96628 35004 ft 493 kts 68°
2026-05-05 00:49 42.23159 -66.87954 34998 ft 492 kts 69°
2026-05-05 00:49 42.25453 -66.79241 34993 ft 492 kts 69°
2026-05-05 00:50 42.27737 -66.70521 35000 ft 492 kts 69°
2026-05-05 00:50 42.30022 -66.61802 34998 ft 492 kts 69°
2026-05-05 00:51 42.32306 -66.53079 35001 ft 492 kts 70°
2026-05-05 00:51 42.34584 -66.44354 35001 ft 492 kts 69°
2026-05-05 00:52 42.36843 -66.35670 35001 ft 492 kts 69°
2026-05-05 00:52 42.39113 -66.26909 34996 ft 492 kts 70°
2026-05-05 00:53 42.41374 -66.18151 35003 ft 492 kts 69°
2026-05-05 00:53 42.43625 -66.09399 35004 ft 492 kts 70°
2026-05-05 00:54 42.45871 -66.00632 35003 ft 492 kts 70°
2026-05-05 00:54 42.48108 -65.91870 35003 ft 492 kts 70°
2026-05-05 00:55 42.50340 -65.83096 34997 ft 492 kts 70°
2026-05-05 00:55 42.52552 -65.74369 34998 ft 492 kts 70°
2026-05-05 00:56 42.54771 -65.65580 35001 ft 492 kts 70°
2026-05-05 00:56 42.56983 -65.56788 35002 ft 492 kts 70°
2026-05-05 00:57 42.59189 -65.47982 35002 ft 492 kts 70°
2026-05-05 00:57 42.61388 -65.39175 34999 ft 492 kts 70°
2026-05-05 00:58 42.63579 -65.30366 35001 ft 492 kts 70°
2026-05-05 00:58 42.65766 -65.21540 35004 ft 492 kts 70°
2026-05-05 00:59 42.67932 -65.12764 34997 ft 492 kts 70°
2026-05-05 00:59 42.70106 -65.03923 35004 ft 492 kts 70°
2026-05-05 01:00 42.72270 -64.95087 34997 ft 492 kts 70°
2026-05-05 01:00 42.74428 -64.86244 35000 ft 492 kts 71°
2026-05-05 01:01 42.76578 -64.77400 35001 ft 492 kts 70°
2026-05-05 01:01 42.78724 -64.68541 35004 ft 492 kts 70°
2026-05-05 01:02 42.80847 -64.59736 35002 ft 492 kts 71°
2026-05-05 01:02 42.82978 -64.50863 35004 ft 492 kts 71°
2026-05-05 01:03 42.85101 -64.41993 35003 ft 492 kts 71°
2026-05-05 01:03 42.87218 -64.33113 35002 ft 492 kts 71°
2026-05-05 01:04 42.89330 -64.24220 34996 ft 492 kts 71°
2026-05-05 01:04 42.92480 -64.10889 35004 ft 492 kts 71°
2026-05-05 01:05 42.94573 -64.01989 35000 ft 492 kts 71°
2026-05-05 01:05 42.96658 -63.93083 35002 ft 492 kts 71°
2026-05-05 01:06 42.98723 -63.84226 35000 ft 492 kts 71°
2026-05-05 01:06 43.00797 -63.75304 34998 ft 492 kts 71°
2026-05-05 01:07 43.02864 -63.66368 34993 ft 492 kts 71°
2026-05-05 01:07 43.04923 -63.57435 34995 ft 492 kts 71°
2026-05-05 01:08 43.06963 -63.48545 34996 ft 492 kts 71°
2026-05-05 01:08 43.09008 -63.39600 35004 ft 492 kts 71°
2026-05-05 01:09 43.11042 -63.30661 34993 ft 492 kts 72°
2026-05-05 01:09 43.13073 -63.21708 35000 ft 492 kts 72°
2026-05-05 01:10 43.15096 -63.12748 35004 ft 492 kts 72°
2026-05-05 01:10 43.17114 -63.03774 34999 ft 492 kts 71°
2026-05-05 01:11 43.19123 -62.94807 35004 ft 492 kts 72°
2026-05-05 01:11 43.21113 -62.85881 35001 ft 492 kts 72°
2026-05-05 01:12 43.23109 -62.76895 34999 ft 492 kts 72°
2026-05-05 01:12 43.25097 -62.67905 35000 ft 492 kts 72°
2026-05-05 01:13 43.27080 -62.58902 35000 ft 492 kts 72°
2026-05-05 01:13 43.29052 -62.49907 35001 ft 492 kts 72°
2026-05-05 01:14 43.31019 -62.40900 35004 ft 492 kts 72°
2026-05-05 01:14 43.32977 -62.31896 35000 ft 492 kts 72°
2026-05-05 01:15 43.34932 -62.22868 34999 ft 492 kts 72°
2026-05-05 01:15 43.36877 -62.13849 35001 ft 492 kts 72°
2026-05-05 01:16 43.38815 -62.04819 35004 ft 492 kts 72°
2026-05-05 01:16 43.40735 -61.95842 35004 ft 492 kts 72°
2026-05-05 01:17 43.42658 -61.86804 35002 ft 492 kts 72°
2026-05-05 01:17 43.44576 -61.77752 35004 ft 492 kts 73°
2026-05-05 01:18 43.46486 -61.68698 34997 ft 492 kts 72°
2026-05-05 01:18 43.48391 -61.59633 35002 ft 492 kts 72°
2026-05-05 01:19 43.50288 -61.50563 35001 ft 492 kts 73°
2026-05-05 01:19 43.51857 -61.43030 34992 ft 492 kts 73°
2026-05-05 01:20 43.54047 -61.32473 34995 ft 492 kts 73°
2026-05-05 01:20 43.55921 -61.23394 35001 ft 492 kts 73°
2026-05-05 01:21 43.57484 -61.15789 35004 ft 492 kts 73°
2026-05-05 01:21 43.59335 -61.06745 35002 ft 492 kts 73°
2026-05-05 01:22 43.61189 -60.97647 35002 ft 492 kts 73°
2026-05-05 01:22 43.63037 -60.88539 35003 ft 492 kts 73°
2026-05-05 01:23 43.64876 -60.79431 35000 ft 492 kts 73°
2026-05-05 01:23 43.66708 -60.70323 35002 ft 492 kts 73°
2026-05-05 01:24 43.68533 -60.61202 35003 ft 492 kts 73°
2026-05-05 01:24 43.70350 -60.52081 35002 ft 492 kts 73°
2026-05-05 01:25 43.72160 -60.42951 34997 ft 492 kts 73°
2026-05-05 01:25 43.73964 -60.33812 35003 ft 492 kts 73°
2026-05-05 01:26 43.75758 -60.24680 34997 ft 492 kts 73°
2026-05-05 01:26 43.77551 -60.15514 34998 ft 492 kts 73°
2026-05-05 01:27 43.79322 -60.06414 35004 ft 492 kts 73°
2026-05-05 01:27 43.81098 -59.97245 35001 ft 492 kts 74°
2026-05-05 01:28 43.82865 -59.88082 35001 ft 492 kts 74°
2026-05-05 01:28 43.84623 -59.78918 34997 ft 492 kts 74°
2026-05-05 01:29 43.86375 -59.69749 35002 ft 492 kts 74°
2026-05-05 01:29 43.88122 -59.60562 35005 ft 492 kts 74°
2026-05-05 01:30 43.89859 -59.51379 35002 ft 492 kts 74°
2026-05-05 01:30 43.91589 -59.42187 34995 ft 492 kts 74°
2026-05-05 01:31 43.93302 -59.33045 35001 ft 492 kts 74°
2026-05-05 01:31 43.95017 -59.23844 35004 ft 492 kts 74°
2026-05-05 01:32 43.96726 -59.14633 35002 ft 492 kts 75°
2026-05-05 01:32 43.98427 -59.05422 35004 ft 492 kts 75°
2026-05-05 01:33 44.00120 -58.96207 34998 ft 492 kts 75°
2026-05-05 01:33 44.01806 -58.86986 35000 ft 492 kts 75°
2026-05-05 01:34 44.03485 -58.77756 34999 ft 492 kts 75°
2026-05-05 01:34 44.05145 -58.68585 35002 ft 492 kts 75°
2026-05-05 01:35 44.06810 -58.59338 34999 ft 492 kts 75°
2026-05-05 01:35 44.08467 -58.50087 34997 ft 492 kts 75°
2026-05-05 01:36 44.10116 -58.40842 35002 ft 492 kts 75°
2026-05-05 01:36 44.11748 -58.31640 34998 ft 492 kts 75°
2026-05-05 01:37 44.13383 -58.22374 35003 ft 492 kts 75°
2026-05-05 01:37 44.15011 -58.13099 35003 ft 492 kts 75°
2026-05-05 01:38 44.16632 -58.03819 34995 ft 492 kts 75°
2026-05-05 01:38 44.18242 -57.94552 35005 ft 492 kts 75°
2026-05-05 01:39 44.19835 -57.85334 35002 ft 492 kts 75°
2026-05-05 01:39 44.21432 -57.76045 35005 ft 492 kts 75°
2026-05-05 01:40 44.23022 -57.66752 34996 ft 492 kts 76°
2026-05-05 01:40 44.24604 -57.57453 34998 ft 492 kts 76°
2026-05-05 01:41 44.26168 -57.48213 35001 ft 492 kts 76°
2026-05-05 01:41 44.27736 -57.38896 34999 ft 492 kts 76°
2026-05-05 01:42 44.29295 -57.29581 35002 ft 492 kts 76°
2026-05-05 01:42 44.30849 -57.20253 35002 ft 492 kts 76°
2026-05-05 01:43 44.32384 -57.10986 35000 ft 492 kts 76°
2026-05-05 01:43 44.33921 -57.01657 34994 ft 492 kts 76°
2026-05-05 01:44 44.35451 -56.92319 35004 ft 492 kts 76°
2026-05-05 01:44 44.36965 -56.83026 35003 ft 492 kts 76°
2026-05-05 01:45 44.38478 -56.73691 35002 ft 492 kts 76°
2026-05-05 01:45 44.39994 -56.64284 35001 ft 492 kts 76°
2026-05-05 01:46 44.41480 -56.55007 34997 ft 492 kts 76°
2026-05-05 01:46 44.42971 -56.45652 35003 ft 492 kts 76°
2026-05-05 01:47 44.44455 -56.36291 35003 ft 492 kts 76°
2026-05-05 01:47 44.45930 -56.26931 35001 ft 492 kts 76°
2026-05-05 01:48 44.47402 -56.17565 34993 ft 492 kts 77°
2026-05-05 01:48 44.48862 -56.08187 35005 ft 492 kts 77°
2026-05-05 01:49 44.50133 -55.98761 34997 ft 493 kts 80°
2026-05-05 01:49 44.50628 -55.94014 34999 ft 493 kts 81°